Погода в Валге

Эстония     57°46′39″N   26°02′00″E
темп.,
°C
ветер,
м/с
пор.,
м/с
влажн.,
%
обл.,
%
осадки,
мм/ч
давл.,
гПа
погр.,
м
23 апреля, пт
пт2300:00+4ююз377298 0.0 1006713
03:00+3ю3982100 0.1 1005915
06:00+1ююз41092100 0.3 1004718
09:00+2ююз41095100 0.8 1004656
12:00+2юз51095100 0.4 1005736
15:00+5зюз577187 0.6 10061278
18:00+3зюз599188 0.4 1008702
21:00+1з51196100 0.9 1009627
24 апреля, сб
сб2400:000з4108817 0.1 1010668
03:000з41187100 0.1 1010898
06:000зюз4118488 0.1 10091023
09:00+1з51295100 0.6 1008786
12:00+2з51087100 0.7 10091001
15:00+5з71070100 1.3 10091443
18:00+3з61178100 0.4 10101182
21:00+1зюз5119085 0.6 1009812
25 апреля, вс
вс2500:00+1з389797 0.5 1008456
03:00+1з4992100 1.8 1008693
06:00+1з3793100 0.1 1007675
09:00+2зсз3799100 0.6 1007319
12:00+2з2598100 2.3 1008263
15:00+3сз3692100 4.0 1009529
18:00+4зсз4782100 1.6 1009983
21:00+2з3891100 1.8 1009416
26 апреля, пн
пн2600:00+1з3694100 0.1 1009484
03:00+1з2697100 0.3 1008406
06:000зюз2498100 0.1 1008229
09:00+2зюз348995 0.3 1008619
12:00+4зюз3478100 0.2 1008992
15:00+4з3482100 0.3 1008823
18:00+4з3589100 0.4 1007665
21:00+2зсз2598100 0.6 1007483
27 апреля, вт
вт2700:00+2зсз2698100 0.5 1007616
03:00+3сз3698100 0.6 1007586
06:00+2ссз3698100 0.6 1007579
09:00+2ссз2798100 1.4 1008397
12:00+5сз3582100 0.4 1009877
15:00+6сз3574100 0.6 10091052
18:00+5зсз3586100 0.7 1009671
21:00+4зсз2593100 1.3 1009294